Regional Weather Roundup
Issued by NWS Wakefield, VA

Home | Current Version | Previous Version | Text Only | Print | Product List | Glossary Off
Versions: 1 2 3 4 5 6 7 8 9 10 11 12 13 14 15 16 17 18 19 20 21 22 23 24 25 26 27 28 29 30 31 32 33 34 35 36 37 38 39 40 41 42 43 44 45 46 47 48 49 50

000
ASUS41 KAKQ 261015
RWRAKQ

REGIONAL WEATHER ROUNDUP
NATIONAL WEATHER SERVICE WAKEFIELD VA
600 AM EDT TUE MAY 26 2015

Note: "fair" indicates few or no clouds below 12,000 feet with no
significant weather and/or obstructions to visibility. * = Denotes
station may not report precipitation (e.g., rain,snow,etc.),
thunder or fog.

VAZ042-051-052>054-056-261100-
NORTHERN VIRGINIA

CITY           SKY/WX    TMP DP  RH WIND       PRES   REMARKS
WASH NATIONAL  MOCLDY    69  60  73 S13       30.21F
DULLES         PTCLDY    62  56  80 S6        30.20S
FORT BELVOIR   CLEAR     67  60  76 VRB2      30.22R
QUANTICO       CLEAR     66  58  75 SW8       30.23S
FREDERICKSBRG* CLEAR     65  60  82 S7        30.22S
STAFFORD*      CLEAR     60  56  88 SE3       30.26S
WARRENTON      CLEAR     63  59  86 CALM      30.21S
CULPEPER*      CLEAR     62  56  82 S7        30.22S
MANASSAS*      CLEAR     61  57  88 S6        30.21S
LEESBURG*      CLEAR     63  59  88 S5        30.21S
WINCHESTER     CLEAR     68  52  56 S5        30.19S
FRONT ROYAL*   FAIR      64  55  72 MISG      30.18S
LURAY*         FAIR      59  59 100 CALM      30.21S
$$

VAZ048-049-060>072-079>083-261100-
CENTRAL AND SOUTH CENTRAL VIRGINIA

CITY           SKY/WX    TMP DP  RH WIND       PRES   REMARKS
RICHMOND       PTCLDY    64  60  87 S7        30.26S
CHESTERFIELD*  NOT AVBL
PETERSBURG*    CLEAR     60  59  96 CALM      30.28R
HANOVER        CLEAR     65  60  84 S8        30.27R
TAPPAHANNOCK*  CLEAR     64  57  79 S5        30.26S
QUINTON*       FAIR      64  61  90 E6        30.26S
CHARLOTTSVILLE CLEAR     62  56  80 S7        30.22S
GORDONSVILLE*  FAIR      57  55  92 SW6       30.22S
ORANGE*        CLEAR     59  55  88 CALM      30.23S
LOUISA*        CLEAR     63  57  82 S5        30.22F
BUMPASS*       FAIR      60  58  91 S5        30.24S
FARMVILLE*     CLEAR     63  62  99 SW5       30.24S
CREWE*         FAIR      61  59  94 CALM      30.26S
FORT PICKETT*  NOT AVBL
CHASE CITY*    FAIR      64  64 100 CALM      30.27R
CLARKSVILLE*   FAIR      63  61  94 S3        30.26R
SOUTH HILL*    CLEAR     60  59  96 CALM      30.33R
LAWRENCEVILLE* FAIR      63  61  94 CALM      30.28R
EMPORIA*       CLEAR     57  55  94 CALM      30.30R
$$

VAZ088>098-261100-
SOUTHEAST VIRGINIA

CITY           SKY/WX    TMP DP  RH WIND       PRES   REMARKS
NORFOLK        CLEAR     64  59  83 SW8       30.29R
VIRGINIA BEACH PTCLDY    66  61  84 S7        30.29R
NORFOLK NAVAL  PTCLDY    71  61  70 S7        30.31R
WEST POINT*    CLEAR     69  61  76 S5        30.28S
SALUDA*        FAIR      65  61  86 S8        30.26S
NEWPORT NEWS   CLEAR     71  61  70 SW10      30.29R
LANGLEY AFB    CLEAR     66  61  84 SW7       30.28R
FORT EUSTIS    CLEAR     66  66  99 S6        30.26R
WILLIAMSBURG*  CLEAR     70  63  78 S7        30.29R
HR EXEC AP*    FAIR      61  57  88 S3        30.32R
FRANKLIN*      CLEAR     61  59  95 SE5       30.30R
WAKEFIELD      CLEAR     63  60  90 CALM      30.28R
$$

VAZ020-022-025-037-045-261100-
WEST CENTRAL AND SOUTHWEST VIRGINIA

CITY           SKY/WX    TMP DP  RH WIND       PRES   REMARKS
STAUNTON*      CLEAR     55  52  90 CALM      30.25S
WAYNESBORO*    FAIR      55  54  94 S6        30.24S
HOT SPRINGS VA CLEAR     61  54  78 W12       30.31S
LYNCHBURG      PTCLDY    60  58  92 SW5       30.26S
DANVILLE       CLEAR     63  60  90 CALM      30.27R
SOUTH BOSTON*  FAIR      61  59  95 MISG      30.27R
MARTINSVILLE   CLOUDY    58  58 100 CALM      30.29R
ROANOKE        PTCLDY    60  56  86 CALM      30.27R
BLACKSBURG     PTCLDY    57  55  93 CALM      30.31S
DUBLIN*        CLOUDY    60  59  97 CALM      30.29R
MARION*        MOCLDY    61  57  88 CALM      30.31R
HILLSVILLE*    PTCLDY    62  60  92 S5        30.31R
RICHLANDS*     PTSUNNY   65  59  82 SE6       30.27S
WISE*          CLOUDY    66  57  72 S12G17    30.28R
ABINGDON*      LGT RAIN  65  61  85 CALM      30.26R
$$

MDZ021>025-VAZ099-100-261100-
SOUTHERN MARYLAND AND THE DELMARVA PENINSULA

CITY           SKY/WX    TMP DP  RH WIND       PRES   REMARKS
PATUXENT RIVER MOCLDY    67  60  78 SW9       30.25R
BAY BRIDGE APT   N/A    N/A N/A N/A S9        30.23S
LEONARDTOWN    CLEAR     64  59  82 SW6       30.26R
DOVER          CLEAR     65  65 100 S12       30.21R
GEORGETOWN     CLEAR     63  60  90 SW7       30.26R
EASTON         CLEAR     68  64  85 SW9       30.27R
CAMBRIDGE      CLEAR     70  61  73 S7        30.25R
SALISBURY      CLEAR     61  60  97 S5        30.27R
OCEAN CITY     CLEAR     64  62  93 S7        30.27R
WALLOPS ISLAND CLEAR     64  61  90 SW7       30.28R
ACCOMACK*      CLEAR     64  61  88 S9        30.28S
$$

NCZ012>017-030>032-261100-
NORTH CENTRAL AND EASTERN NORTH CAROLINA

CITY           SKY/WX    TMP DP  RH WIND       PRES   REMARKS
ROANOKE RAPIDS FAIR      61  59  94 CALM      30.29R
RALEIGH        MOCLDY    65  62  90 CALM      30.28R
ELIZABETH CITY CLEAR     62  60  93 S5        30.30R
AHOSKIE*       CLEAR     59  58  97 CALM      30.30R
EDENTON*       CLEAR     66  62  86 S5        30.30R
CURRITUCK*     CLEAR     63  60  93 CALM      30.31R
KILL DEVIL HLS CLEAR     69  63  81 S3        30.30R
MANTEO         PTCLDY    70  63  80 SW8       30.31R
CAPE HATTERAS  CLEAR     72  63  73 SW8       30.31R
TARBORO*       FAIR      60  59  96 CALM      30.30R FOG
GOLDSBORO      CLEAR     61  60  96 CALM      30.27
WASHINGTON       N/A     62  60  92 CALM      30.30R
GREENVILLE     CLEAR     61  61 100 CALM      30.30R
NEW BERN       PTCLDY    61  57  87 CALM      30.30R
WILMINGTON     CLEAR     65  62  90 CALM      30.27R
$$

VAZ048-261100-
ELSEWHERE

CITY           SKY/WX    TMP DP  RH WIND       PRES   REMARKS
HARRISBURG PA  PTCLDY    66  60  81 SE5       30.18R
BALTIMORE      PTCLDY    63  58  83 CALM      30.20S
ANNAPOLIS      PTCLDY    66  58  75 S7        30.21S
ANDREWS AFB    CLEAR     64  60  86 S8        30.21S
PHILADELPHIA   PTCLDY    66  59  78 S9        30.22R
HENDERSON NC   CLEAR     62  59  91 S5        30.28R
GREENSBORO     MOCLDY    66  64  93 S7        30.27R
ROCKY MOUNT    CLEAR     60  60 100 CALM      30.29R FOG
$$

VAZ100-261100-
MARINE

STATION/POSITION TIME  TEMP    WIND        PRES    WAVE   SWELL
                       AIR SEA DIR/SP/G            HT/PER HT/PER
                 (UTC) (F)     (DEG/KT/KT) (MB)    (FT/S) (FT/S)
BRANDYWINE LGT   0900   65 64  210/ 15/ 16 1023.7R
CAPE MAY NJ      0900   64 68  190/  7/  9 1023.5R
LEWES DE         0900   67 63  220/  7/  9 1023.7R
15NM E FENWICK I 0950   63 60              1024.8R   3/ 5
OCEAN-CITY-INLET 0900   62 59  210/  9/ 11 1024.4R
WACHAPREAGUE VA  0900   67 70  230/  6/  9 1025.1R
THOMAS POINT MD  1000   67 66  200/ 14/ 16 1023.8S
GOOSES REEF MD   1000   68 67  230/ 12/ 16 1024.7R   2/ 3
SOLOMONS ISLAND  0900      70                N/A
BISHOPS HEAD MD  0900   69 70  200/ 13/ 16 1023.6S
PINEY POINT MD   0900          230/ 16/ 17   N/A
CAMBRIDGE MD     0900   68 71  200/  7/  9 1023.4S
LEWISETTA VA     0900   68 71              1023.8R
RAPPAHANNOCK LGT 0900          190/ 13/ 14 1025.5R
STINGRAY PT      1000   69 70  210/ 12/ 16 1024.4R   1/ 2
YORK RVR RNG VA  0900   69     220/ 12/ 14 1024.4R
YORKTOWN VA      0900   68 71  220/ 11/ 14 1024.5R
JAMESTOWN VA     1000   66 74  210/ 12/ 16 1023.9R
DOMINION TERM VA 0900   67     200/  9/ 11 1025.3R
KIPTOPEKE VA     0900      73  200/  9/ 11   N/A
CHES BAY BRIDGE  0900   67 64  190/ 10/ 11 1024.8R
CAPE HENRY VA    0900   67     200/  9/ 13 1024.0R
CHESAPEAKE LGHT  0900   67     210/ 15/ 15 1026.0R
WILLOUBY STN VA  0900   68     200/ 12/ 13 1025.9R
CAPE HENRY BUOY  0928      65                N/A     1/ 6
1ST LANDING BUOY 1000      66              1025.2R
CAPE CHARLES BUO 0926      67                N/A     1/ 6   2/ 6
OFFSHORE WE BUOY 0911      65                N/A     2/ 3   2/13
64NM E OF VA BCH 0950   65 63  200/  6/  8 1026.0R   1/ 9   2/ 9
DUCK PIER NC     0900   71 61  210/  8/ 11 1024.9R
44100 DUCK FRF   0924      65                N/A     2/ 6
44056 DUCK FRF   0911      63                N/A     1/ 8
OREGON INLET NC  0900   73 75  180/ 10/ 12 1025.9R
HATTERAS NC      0900   74 75  180/  5/ 11 1025.4R
DIAMOND SHLS NC  0950   75 77  170/ 16/ 17 1026.1R   3/ 5   2/ 7
CAPE LOOKOUT NC  1000   74     170/ 11/ 13 1025.4R
$$


USA.gov is the U.S. government's official web portal to all federal, state and local government web resources and services.